Location: Slanting_Bridge
(35.6330°N, 80.9830°W)
Time: 04:04:35
(UTC-05:00)

Hamsat - Visible Passes

Search period start: 25 February 2017 00:00
Search period end: 07 March 2017 00:00
Orbit: 585 x 619 km, 97.6° (Epoch: 24 February)

Date Brightness Start Highest point End Pass type
(mag) Time Alt. Az. Time Alt. Az. Time Alt. Az.
25 Feb ? 04:30:26 10° NNE 04:31:04 14° NNE 04:31:04 14° NNE visible
26 Feb ? 04:42:14 10° N 04:43:13 17° N 04:43:13 17° N visible
27 Feb ? 04:54:07 10° N 04:55:21 19° N 04:55:21 19° N visible
28 Feb ? 05:06:04 10° N 05:07:29 20° NNW 05:07:29 20° NNW visible
01 Mar ? 05:18:07 10° NNW 05:19:37 19° NNW 05:19:37 19° NNW visible
02 Mar ? 03:54:22 10° NE 03:54:57 13° NE 03:54:57 13° NE visible
02 Mar ? 05:30:17 10° NNW 05:31:46 17° NW 05:31:46 17° NW visible
03 Mar ? 04:05:53 10° NNE 04:07:05 18° NE 04:07:05 18° NE visible
03 Mar ? 05:42:38 10° NNW 05:43:54 14° NW 05:43:54 14° NW visible
04 Mar ? 04:17:29 10° NNE 04:19:14 23° NE 04:19:14 23° NE visible
04 Mar ? 05:55:23 10° NW 05:56:02 11° NW 05:56:02 11° NW visible
05 Mar ? 04:29:12 10° NNE 04:31:22 30° NNE 04:31:22 30° NNE visible
06 Mar ? 04:40:59 10° N 04:43:30 36° N 04:43:30 36° N visible
